Back to catalog

DELTA 1 DEB

LostUNKNOWN
NORAD 28266·DEBRIS·🇺🇸 United States

Launched Jul 4, 1968 from Vandenberg Space Force Base

Loading…

Next Passes (next 24 hours)

TLE

StaleSource: Space-Track

Epoch: Jul 26, 2026, 12:58 UTC

1 28266U 68055L   26207.54032089  .00001754  00000-0  52719-2 0  9999
2 28266 120.7335  52.7403 1661159 165.9462 199.4062 10.85345747524916

Track DELTA 1 DEB in real time with AllMySat

Download on the App Store